Printer-friendly version

IAU Minor Planet Center

Minor Planet Center

MPEC 2002-L39 : 2002 LR24

The following Minor Planet Electronic Circular may be linked-to from your own Web pages, but must not otherwise be redistributed electronically.


Read MPEC 2002-L38 Read MPEC 2002-L40


M.P.E.C. 2002-L39                                Issued 2002 June 10, 16:52 UT

     The Minor Planet Electronic Circulars contain information on unusual
         minor planets and routine data on comets.  They are published
   on behalf of Commission 20 of the International Astronomical Union by the
          Minor Planet Center, Smithsonian Astrophysical Observatory,
                          Cambridge, MA 02138, U.S.A.

             Prepared using the Tamkin Foundation Computer Network

                              MPC@CFA.HARVARD.EDU
          URL http://cfa-www.harvard.edu/iau/mpc.html  ISSN 1523-6714

                                   2002 LR24

Observations:
     K02L24R* C2002 06 08.24526 15 10 22.47 -16 43 25.8          17.8        704
     K02L24R  C2002 06 08.25854 15 10 28.11 -16 32 00.6          18.3        704
     K02L24R  C2002 06 08.27190 15 10 33.79 -16 20 29.0          18.6        704
     K02L24R  C2002 06 08.28545 15 10 39.68 -16 08 46.8          18.3        704
     K02L24R  C2002 06 08.29931 15 10 45.70 -15 56 45.3          18.3        704
     K02L24R  C2002 06 09.22997 15 19 22.52 -02 00 21.1          18.3        704
     K02L24R  C2002 06 09.24399 15 19 28.33 -01 47 29.4          18.7        704
     K02L24R  C2002 06 09.25785 15 19 34.34 -01 34 44.9          20.1        704
     K02L24R  C2002 06 09.27171 15 19 40.03 -01 22 05.2          19.1        704
     K02L24R  C2002 06 09.28558 15 19 45.92 -01 09 21.0          18.9        704
     K02L24R  C2002 06 10.23662 15 28 25.61 +12 59 01.8          18.3 V      333
     K02L24R  C2002 06 10.23692 15 28 25.73 +12 59 16.1          18.8 V      333
     K02L24R  C2002 06 10.23721 15 28 25.89 +12 59 32.0          18.2 V      333
     K02L24R  C2002 06 10.23750 15 28 26.05 +12 59 47.1          18.6 V      333
     K02L24R  C2002 06 10.23784 15 28 26.13 +13 00 05.9          18.6 V      333
     K02L24R tC2002 06 10.47703 15 30 31.67 +16 26 16.2          18   R      474
     K02L24R  C2002 06 10.48047 15 30 33.21 +16 29 05.1                      474
     K02L24R FC2002 06 10.48152 15 30 33.49 +16 29 55.7                      474

Observer details:
333 Desert Eagle Observatory.  Observer W. K. Y. Yeung.  0.45-m reflector
    + CCD.
474 Mount John Observatory, Lake Tekapo.  Observers A. C. Gilmore,
    P. M. Kilmartin.  Measurer P. M. Kilmartin.  1.0-m f/7.7 reflector + CCD.
704 Lincoln Laboratory ETS, New Mexico.  Observers M. Blythe, F. Shelly,
    M. Bezpalko, R. Huber, L. Manguso, S. Adams, J. Piscitelli.  Measurers
    J. Stuart, R. Sayer, J. B. Evans, H. Viggh.  1.0-m f/2.15 reflector + CCD.

Orbital elements:
2002 LR24
Epoch 2002 May 6.0 TT = JDT 2452400.5                   MPC
M 310.75087              (2000.0)            P               Q
n   0.70581797     Peri.   38.55803     +0.38805165     +0.85990697
a   1.2493216      Node   256.55344     -0.90733596     +0.29329886
e   0.1998734      Incl.   19.93618     -0.16173240     +0.41777479
P   1.40           H   24.8           G   0.15           U   7
Residuals in seconds of arc
020608 704  0.3-  0.2+    020609 704  0.6-  0.1-    020610 333  0.1+  0.2-
020608 704  0.1-  0.1-    020609 704 (2.7+  2.2+)   020610 333  0.8+  0.1+
020608 704  0.4-  0.2+    020609 704  0.6+  0.3-    020610 333  0.1-  1.5+
020608 704  0.5+  0.5-    020609 704  0.7+  1.2+    020610 474  0.1+  0.1+
020608 704  0.4+  0.3+    020610 333  0.4-  0.3-    020610 474  1.2+  0.5+
020609 704  0.2-  0.7-    020610 333  0.5-  1.3-    020610 474  1.2-  0.3-

Ephemeris:
2002 LR24                a,e,i = 1.25, 0.20, 20                  q = 0.9996
Date    TT    R. A. (2000) Decl.     Delta      r     Elong.  Phase     V
2002 06 05    14 40.54   -50 03.1    0.036    1.044   142.4    36.3    19.2
2002 06 06    14 49.76   -42 31.0    0.032    1.042   147.2    31.8    18.8
2002 06 07    14 58.98   -32 37.8    0.028    1.040   151.7    27.6    18.4
2002 06 08    15 08.18   -20 06.1    0.025    1.038   153.1    26.3    18.1
2002 06 09    15 17.31   -05 27.8    0.024    1.036   148.2    31.1    18.1
2002 06 10    15 26.32   +09 36.3    0.025    1.034   138.4    40.7    18.4
2002 06 11    15 35.17   +23 08.3    0.027    1.032   127.7    51.1    18.9
2002 06 12    15 43.85   +34 07.1    0.030    1.030   118.4    60.2    19.4
2002 06 13    15 52.33   +42 35.0    0.034    1.028   110.9    67.3    19.9
2002 06 14    16 00.58   +49 01.2    0.039    1.027   105.1    72.8    20.4
2002 06 15    16 08.59   +53 56.6    0.044    1.025   100.7    76.9    20.8
2002 06 16    16 16.36   +57 46.0    0.050    1.023    97.2    80.0    21.1
2002 06 17    16 23.87   +60 47.2    0.056    1.022    94.4    82.5    21.5
2002 06 18    16 31.12   +63 12.9    0.062    1.020    92.2    84.4    21.7
2002 06 19    16 38.11   +65 11.8    0.067    1.019    90.3    85.9    22.0
2002 06 20    16 44.84   +66 50.4    0.073    1.017    88.8    87.1    22.2
2002 06 21    16 51.31   +68 13.2    0.079    1.016    87.5    88.0    22.4
2002 06 22    16 57.54   +69 23.5    0.085    1.015    86.4    88.7    22.6
2002 06 23    17 03.5    +70 23.9    0.091    1.013    85.5    89.3    22.8
2002 06 24    17 09.3    +71 16.3    0.098    1.012    84.7    89.8    22.9
2002 06 25    17 14.8    +72 02.2    0.104    1.011    84.0    90.1    23.1

Timothy B. Spahr             (C) Copyright 2002 MPC           M.P.E.C. 2002-L39

Read MPEC 2002-L38 Read MPEC 2002-L40


Our Web policy. Index to the CBAT/MPC/ICQ pages.


Valid HTML 4.01!